Simultaneous Nadir Overpasses (SNOs) Predictions

Prediction of SNOs between NOAA-19 and TERRA Satellite Orbit:

Table of predicted SNOs for the next 14.0 days since TLE Epoch: 3/5/2016
Index Date (NOAA-19) Time (NOAA-19) Lat,Lon (NOAA-19) SZA (NOAA-19 ) Date (TERRA) Time (TERRA) Lat,Lon (TERRA) SZA (TERRA ) Distance(km) Time Diff (sec)
1 03/06/2016 23:55:32 73.32,-172.86 78.45 03/06/2016 23:56:03 73.33,-172.85 78.46 1.07 31
2 03/07/2016 00:46:25 -73.23, -5.37 101.66 03/07/2016 00:45:33 -73.21, -5.47 101.68 3.61 52
3 03/09/2016 05:29:34 -73.31, -76.31 102.43 03/09/2016 05:29:50 -73.29, -76.38 102.45 3.47 16
4 03/09/2016 06:20:32 72.87, 91.93 77.14 03/09/2016 06:19:22 72.94, 90.56 77.17 45.42 70
5 03/11/2016 10:12:52 -73.84,-148.32 102.78 03/11/2016 10:14:01 -73.76,-146.47 102.82 58.13 69
6 03/11/2016 11:03:48 73.33, 20.16 76.71 03/11/2016 11:03:35 73.31, 20.21 76.70 2.46 13
7 03/13/2016 15:46:56 73.39, -50.73 75.92 03/13/2016 15:47:55 73.39, -50.72 75.91 0.64 59
8 03/13/2016 16:37:50 -73.30, 116.76 104.19 03/13/2016 16:37:25 -73.28, 116.69 104.22 3.05 25
9 03/15/2016 21:20:59 -73.40, 45.79 104.96 03/15/2016 21:21:46 -73.38, 45.81 104.97 1.62 47
10 03/15/2016 22:12:03 73.31,-146.77 74.94 03/15/2016 22:11:13 73.29,-146.74 74.92 2.10 50
11 03/18/2016 02:55:11 73.39, 142.31 74.16 03/18/2016 02:55:36 73.37, 142.32 74.14 2.20 25
